Regional Weather Roundup
Issued by NWS

Home | Current Version | Previous Version | Graphics & Text | Print | Product List | Glossary On
Versions: 1 2 3 4 5 6 7 8 9 10 11 12 13 14 15 16 17 18 19 20 21 22 23 24 25 26 27 28 29 30 31 32 33 34 35 36 37 38 39 40 41 42 43 44 45 46 47 48 49 50
000
ASUS43 KLOT 220203
RWRIL

ILLINOIS REGIONAL WEATHER ROUNDUP
NATIONAL WEATHER SERVICE CHICAGO/ROMEOVILLE IL
800 PM CST SUN JAN 21 2018

NOTE: "FAIR" INDICATES FEW OR NO CLOUDS BELOW 12,000 FEET WITH NO
SIGNIFICANT WEATHER AND/OR OBSTRUCTIONS TO VISIBILITY.

* THESE STATIONS ARE NOT UNDER NWS QUALITY CONTROL. THEY ALSO MAY NOT
  REPORT WEATHER SUCH AS PRECIPITATION OR FOG.

ILZ001-002-007-009-015-016-024-220300-
NORTHWEST ILLINOIS

CITY           SKY/WX    TMP DP  RH WIND       PRES   REMARKS
MOLINE         FOG       44  43  96 NE6       29.78F VSB 1
STERLING*      LGT RAIN  39  39 100 E9        29.83  VSB 1/4 WCI  33
SAVANNA*       CLOUDY    39  39  99 NE6       29.83F FOG     WCI  35
$$

ILZ003-004-008-010-011-017-018-220300-
NORTH CENTRAL ILLINOIS

CITY           SKY/WX    TMP DP  RH WIND       PRES   REMARKS
ROCKFORD       FOG       39  39 100 SE5       29.88R VSB 3/4
FREEPORT*      FOG       37  37 100 E6        29.87S VSB 1   WCI  32
ROCHELLE*      FOG       40  40 100 E6        29.85F VSB 1/4
DE KALB*       RAIN      41  40  99 E9        29.87S VSB 1/4
PERU*          FOG       42  42  99 E5        29.85F VSB 1/4
$$

ILZ005-006-012>014-019>023-220300-
NORTHEAST ILLINOIS

CITY           SKY/WX    TMP DP  RH WIND       PRES   REMARKS
CHICAGO-OHARE  DRZL/FOG  41  40  96 NE5       29.89F VSB 1/4
CHICAGO-MIDWAY FOG       43  43 100 SE6       29.89F VSB 1/4
AURORA         FOG       44  43  96 E8        29.87F VSB 1/4
LANSING*       LGT RAIN  45  45 100 SE5       29.91S VSB 1/2
JOLIET*        FOG       46  46 100 SE6       29.88F VSB 1/2
WAUKEGAN       LGT RAIN  36  36 100 NE5       29.90F VSB 1/4 WCI  32
DUPAGE AIRPORT FOG       42  42 100 E7        29.87F VSB 1/4
KANKAKEE*      CLOUDY   N/A N/A N/A S8        29.91S FOG
WHEELING       FOG       40  39  97 CALM      29.91F VSB 1/2
MORRIS*        FOG       44  44  98 SE3       29.87S VSB 1/4
NORTHERLY ISL    N/A     37  36  96 NE2         N/A
$$

LMZ740>746-220300-
SOUTHERN LAKE MICHIGAN

STATION/POSITION SKY/WX   TEMP    WIND        PRES    VSBY  WAVE
                          AIR SEA DIR/SP/G                  HT/PER
                          (F)     (DEG/KT/KT) (MB)    (MI)  (FT/S)
HARRISON CRIB              37     120/  9/  9   N/A
BURNHAM HARBOR             36      10/  2/  3   N/A
CALUMET HARBOR             39     110/  3/  4 1012.1F
BURNS HARBOR               47     160/  8/ 15 1013.5F
MICHIGAN CITY              44     140/ 11/ 13   N/A
$$

ILZ025>027-034>036-040-047-049-050-058-095>099-220300-
WEST-CENTRAL ILLINOIS

CITY           SKY/WX    TMP DP  RH WIND       PRES   REMARKS
QUINCY         MOCLDY    53  49  86 SE15      29.73F
GALESBURG*     MOCLDY    50  50 100 E9        29.78F FOG
MACOMB*        MOCLDY    51  50  97 SE14      29.80F FOG
JACKSONVILLE*  MOCLDY    52  50  93 SE13G18   29.80S
PITTSFIELD*    CLOUDY    55  52  88 SE10      29.79S
$$

ILZ028>032-037-038-041>044-048-051>054-059>061-220300-
CENTRAL ILLINOIS

CITY           SKY/WX    TMP DP  RH WIND       PRES   REMARKS
BLOOMINGTON    LGT RAIN  48  48 100 SE13      29.87F VSB 3/4
DECATUR        FOG       50  50 100 S10       29.88F VSB 3/4
PEORIA         FOG       53  52  96 SE12      29.83F VSB 1
LACON*         CLOUDY    52  52  99 S13       29.83F FOG
LINCOLN*       CLOUDY    51  51 100 SE6       29.86S FOG
SPRINGFIELD    CLOUDY    55  53  93 S14       29.84S
TAYLORVILLE    CLOUDY    52  52  99 S15G24    29.86S FOG
$$

ILZ033-039-045-046-055>057-062-063-220300-
EAST-CENTRAL ILLINOIS

CITY           SKY/WX    TMP DP  RH WIND       PRES   REMARKS
CHAMPAIGN      FOG       47  47 100 S13       29.90F VSB 1/2
DANVILLE*      CLOUDY    47  47 100 S9        29.90S FOG
RANTOUL*       FOG       45  45 100 SE6       29.91S VSB 1/4
MATTOON        FOG       48  47  96 S12       29.91S VSB 1/2
$$

ILZ079-100>102-220300-
SOUTHWEST ILLINOIS

CITY           SKY/WX    TMP DP  RH WIND       PRES   REMARKS
ALTON          RAIN      54  54 100 S14G21    29.85S
BELLEVILLE     CLOUDY    55  52  92 S10       29.86S
CAHOKIA*       CLOUDY    56  53  90 S9        29.85S
SPARTA*        CLOUDY    56  56  99 S10       29.90S
$$

ILZ064>066-069>071-074>076-080>082-084>086-088>090-092>094-220300-
SOUTH-CENTRAL ILLINOIS

CITY           SKY/WX    TMP DP  RH WIND       PRES   REMARKS
CARBONDALE     CLOUDY    50  50 100 SE6       29.92F
CAIRO*         CLOUDY    55  52  89 S5        29.93S
EFFINGHAM*     DRZL/FOG  49  49 100 SE8       29.93F VSB 1/4
MARION         CLOUDY    54  53  98 CALM      29.93F
MT. VERNON     CLOUDY    53  51  93 S5        29.92F
CENTRALIA*     CLOUDY    54  53  97 S13       29.90F
SALEM*         CLOUDY    55  53  92 SE8       29.90F
METROPOLIS*    MOCLDY    59  52  78 SE5       29.95S
$$

ILZ067-068-072-073-078-083-087-091-220300-
SOUTHEAST ILLINOIS

CITY           SKY/WX    TMP DP  RH WIND       PRES   REMARKS
LAWRENCEVILLE  CLOUDY    46  46 100 S7        29.96S FOG
FLORA*         CLOUDY    50  50  99 S5        29.94S FOG
FAIRFIELD*     CLOUDY    51  51  99 S3        29.93S
HARRISBURG*    CLOUDY    51  50  97 S7        29.95S
ROBINSON*      CLOUDY    48  48 100 S7        29.96S
CARMI*         CLOUDY    44  44 100 SE7       29.94F FOG
$$

ABBREVIATIONS USED IN REMARKS
   TC - TEMPERATURE IN CELSIUS
  WCI - WIND CHILL INDEX
   HX - HEAT INDEX
  VSB - VISIBILITY
$$





USA.gov is the U.S. government's official web portal to all federal, state and local government web resources and services.